Home > Weather > Hay River > Past weeks

Flag for Canada Weather for the Past 2 Weeks in Hay River, Northwest Territories, Canada

Now
63 °F

Passing clouds.


Feels Like: 63 °F
Forecast: 42 / 58 °F
Wind: 7 mph from East

Location: Hay River

Current Time: May 4, 2016 at 12:35:11 AM

Latest Report: May 3, 2016 at 11:00 PM


Visibility: 15 mi

Pressure: 29.68 "Hg

Humidity: 42%

Dew Point: 39 °F

Location of Hay RiverLocation

Historic Weather in Hay River — Graph

°F

Hay River Temperature Yesterday

Maximum temperature yesterday: 77 °F (at 4:00 PM)
Minimum temperature yesterday: 52 °F (at 6:00 AM)
Average temperature yesterday: 65 °F

High & Low Weather Summary for the Past Weeks

 TemperatureHumidityPressure
High77 °F (May 3, 4:00 PM)100% (Apr 27, 7:00 PM)30.60 "Hg (Apr 27, 7:00 PM)
Low12 °F (Apr 20, 6:00 AM)19% (Apr 30, 5:00 PM)29.35 "Hg (Apr 18, 11:00 PM)
Average40 °F65%30.07 "Hg
* Reported Apr 18 11:00 PM — May 3 11:00 PM, Hay River, Weather by CustomWeather, © 2016

Note: Actual official high and low records may vary slightly from our data, if they occured in-between our weather recording intervals... More about our weather records

Advertising

Hay River Weather History for the Previous 24 Hours

Scroll right to see more
 ConditionsComfort  
Time TempWeatherWind HumidityBarometerVisibility
11:00 PM
Tue, May 3
63 °FPassing clouds.7 mph42%29.68 "Hg15 mi
10:00 PM64 °FScattered clouds.6 mph40%29.68 "Hg15 mi
9:00 PM70 °FBroken clouds.6 mph35%29.68 "Hg15 mi
8:00 PM70 °FScattered clouds.7 mph38%29.70 "Hg15 mi
7:00 PM73 °FPassing clouds.8 mph36%29.71 "Hg15 mi
6:00 PM77 °FPassing clouds.7 mph32%29.72 "Hg15 mi
5:00 PM77 °FPassing clouds.5 mph32%29.73 "Hg15 mi
4:00 PM77 °FPassing clouds.6 mph32%29.74 "Hg15 mi
3:00 PM75 °FPassing clouds.6 mph36%29.75 "Hg15 mi
2:00 PM73 °FPassing clouds.9 mph38%29.76 "Hg15 mi
1:00 PM63 °FPassing clouds.12 mph49%29.75 "Hg15 mi
12:00 PM72 °FScattered clouds.9 mph38%29.75 "Hg15 mi
11:00 AM70 °FScattered clouds.12 mph40%29.73 "Hg15 mi
10:00 AM70 °FScattered clouds.10 mph38%29.73 "Hg15 mi
9:00 AM64 °FScattered clouds.9 mph46%29.74 "Hg15 mi
8:00 AM59 °FScattered clouds.12 mph48%29.75 "Hg15 mi
7:00 AM54 °FBroken clouds.14 mph54%29.74 "Hg15 mi
6:00 AM52 °FPassing clouds.13 mph58%29.74 "Hg15 mi
5:00 AM54 °FPassing clouds.13 mph54%29.75 "Hg15 mi
4:00 AM57 °FPartly cloudy.14 mph48%29.76 "Hg15 mi
3:00 AM59 °FPassing clouds.13 mph45%29.77 "Hg15 mi
2:00 AM61 °FPassing clouds.14 mph45%29.78 "Hg15 mi
1:00 AM61 °FPassing clouds.14 mph48%29.80 "Hg15 mi
12:00 AM55 °FPassing clouds.12 mph55%29.81 "Hg15 mi
Weather by CustomWeather, © 2016

See weather overviewHow to use our weather pages